www.pogodaiklimat.ru
ПОГОДА в Жлобине

Архив погоды в Жлобине (Гомельская область, Беларусь)

Время
(UTC), дата
21 11.05
00 12.05
03 12.05
06 12.05
09 12.05
12 12.05
15 12.05
18 12.05
21 12.05
00 13.05
03 13.05
06 13.05
09 13.05
12 13.05
15 13.05
18 13.05
21 13.05
00 14.05
03 14.05
06 14.05
09 14.05
12 14.05
15 14.05
18 14.05
21 14.05
00 15.05
03 15.05
06 15.05
09 15.05
12 15.05
15 15.05
18 15.05
21 15.05
00 16.05
03 16.05
06 16.05
09 16.05
12 16.05
15 16.05
18 16.05
21 16.05
00 17.05
03 17.05
06 17.05
09 17.05
12 17.05
15 17.05
18 17.05
21 17.05
00 18.05
03 18.05
06 18.05
09 18.05
12 18.05
15 18.05
18 18.05
Ветер
(напр.,м/с)
Видим. Явления Облачность Т
(С)
Тd
(С)
f
(%)
Тe
(С)
Тes
(С)
Комфортность P
(гПа)
Po
(гПа)
Тmin
(С)
Tmax
(С)
R
(мм)
R24
(мм)
S
(см)
СЗ 1 35 км 9/9 600 м
[Sc]
+7.9 -0.1 57 +8 +8 прохладно 1019.4 1002.1
С 1 35 км 9/9 600 м
[Sc]
+6.5 +1.0 68 +6 +6 по сезону 1020.0 1002.6
С 1 35 км 8/8 600 м
[Sc]
+5.7 +0.8 71 +5 +5 холодно 1021.3 1003.8
СЗ 1 35 км 8/8 1000 м
[Sc]
+8.2 +0.4 58 +8 +9 прохладно 1021.7 1004.3 +5.4
С 3 35 км 8/6 600 м
[Sc Ac As]
+10.1 -0.1 49 +8 +12 холодно 1021.3 1004.1
С 1 35 км 8/5 600 м
[Sc Ac trans]
+10.5 +0.2 49 +11 +15 холодно 1021.3 1004.1
В 2 35 км 5/4 1000 м
[Sc Ac trans]
+12.3 +1.0 46 +12 +14 прохладно 1020.6 1003.5
В 1 35 км 4/3 1000 м
[Sc Ac trans]
+8.5 +0.5 57 +8 +8 холодно 1021.3 1004.0 +12.8
штиль 0 35 км 8/8 600 м
[Sc]
+6.1 +1.0 70 +5 +5 холодно 1022.2 1004.7
штиль 0 35 км 9/9 600 м
[Sc]
+5.0 +2.7 85 +4 +4 прохладно 1021.9 1004.3
штиль 0 30 км 9/6 600 м
[Sc Ac trans]
+5.1 +3.3 88 +4 +4 холодно 1022.2 1004.6
СВ 1 35 км 3/0
[Ac trans]
+9.9 0.0 50 +10 +16 по сезону 1022.4 1005.1 +4.5
В 2 35 км 8/5 600 м
[Sc Ac trans]
+10.4 -1.0 45 +9 +14 холодно 1022.2 1005.0
СВ 3 35 км 8/5 600 м
[Sc Ac trans Ci fib]
+12.0 -0.9 41 +11 +15 холодно 1021.5 1004.4
ЮВ 3 35 км 5/3 1000 м
[Sc Ci fib]
+10.9 -0.9 44 +9 +12 холодно 1021.2 1004.0
ЮВ 2 35 км ясно +7.4 -2.1 51 +6 +6 очень холодно 1022.0 1004.6 +13.1
штиль 0 35 км ясно +4.2 -1.4 67 +4 +4 холодно 1022.2 1004.6
штиль 0 35 км ясно +2.0 -1.3 79 +1 +1 очень холодно 1023.1 1005.3
штиль 0 24 км 6/0
[Ac lent Ci]
+1.8 +0.2 89 +1 +1 очень холодно 1023.1 1005.3
ЮВ 1 35 км 3/3 1000 м
[Sc Ci fib]
+9.8 -1.6 45 +10 +15 по сезону 1023.5 1006.2 +1.0
ЮВ 2 35 км 8/5 1000 м
[Sc Ac trans Cc]
+12.2 +0.3 44 +12 +17 прохладно 1023.7 1006.6
З 2 30 км 8/6 1000 м
[Sc Ac lent]
+14.4 -0.5 36 +14 +17 прохладно 1023.0 1006.0
ЮВ 1 35 км 6/5 1000 м
[Sc Cc]
+14.3 -0.2 37 +15 +17 по сезону 1022.5 1005.5
штиль 0 35 км 3/3 1000 м
[Sc]
+9.5 +1.2 56 +9 +9 холодно 1023.3 1006.0 +15.4
штиль 0 18 км 5/5 600 м
[Sc]
+7.8 +2.9 71 +7 +7 прохладно 1024.2 1006.8
штиль 0 20 км 9/9 600 м
[Sc]
+8.6 +6.0 84 +8 +8 по сезону 1024.8 1007.4
штиль 0 15 км 9/9 600 м
[Sc]
+8.7 +6.3 85 +8 +8 прохладно 1025.4 1008.0
штиль 0 30 км 9/9 600 м
[Sc]
+11.7 +2.7 54 +11 +12 по сезону 1026.1 1008.9 +6.7
СВ 2 35 км 10/6 1000 м
[Sc Ac trans]
+14.9 +1.8 41 +15 +17 по сезону 1026.2 1009.2
СВ 1 25 км 8/5 600 м
[Sc Ac trans]
+16.0 +2.4 40 +17 +22 по сезону 1025.9 1009.0
В 1 35 км 8/4 600 м
[Sc Ac trans Cc]
+16.5 +1.4 36 +17 +19 по сезону 1025.2 1008.3
Ю 1 35 км 8/8 600 м
[Sc]
+13.5 +3.3 50 +14 +14 по сезону 1025.8 1008.7 +17.7
штиль 0 21 км 5/5 600 м
[Sc]
+8.6 +5.3 80 +8 +8 прохладно 1026.9 1009.5
штиль 0 13 км 4/4 600 м
[Sc]
+5.7 +5.1 96 +5 +5 прохладно 1027.8 1010.2
штиль 0 13 км 4/4 600 м
[Sc]
+5.7 +5.4 98 +5 +5 прохладно 1028.3 1010.7
С 1 30 км ясно +14.6 +4.3 50 +15 +23 тепло 1028.4 1011.3 +4.8
ЮВ 1 29 км 4/4 1000 м
[Cu hum]
+17.4 +2.6 37 +18 +29 тепло 1027.8 1010.9
В 1 35 км 5/4 1000 м
[Sc Ci fib]
+18.6 +2.8 35 +20 +29 тепло 1026.5 1009.7
ЮВ 1 29 км 8/3 1000 м
[Sc diur, vesp Ci fib]
+17.7 +1.6 34 +19 +22 тепло 1025.2 1008.4
штиль 0 35 км 5/0
[Cs]
+14.2 +2.1 44 +14 +14 по сезону 1024.7 1007.7 +19.5
штиль 0 35 км 5/0
[Ci fib]
+10.1 +3.6 64 +10 +10 по сезону 1024.9 1007.6
З 1 35 км 9/9 1000 м
[Sc]
+10.2 +2.5 59 +10 +10 тепло 1024.6 1007.3
СЗ 1 35 км 8/4 1000 м
[Sc Ac trans]
+9.6 +3.1 64 +9 +10 по сезону 1023.7 1006.4
СЗ 2 35 км 9/0
[Ac As Cs]
+14.0 +5.1 55 +14 +18 тепло 1023.0 1006.0 +9.3
СЗ 3 35 км 9/3 1000 м
[Sc Ac trans Cs]
+19.0 +7.4 47 +20 +25 тепло 1021.5 1004.8
З 4 35 км 8/5 600 м
[Cb cap Ac trans Ci fib]
+22.5 +9.3 43 +24 +27 комфорт 1019.1 1002.7
ЮЗ 1 35 км {гроза, ливн. дождь} 8/8 600 м
[Cb cap]
+18.1 +13.8 76 +19 +20 тепло 1018.9 1002.2
штиль 0 35 км {гроза, ливн. дождь} 8/4 1000 м
[Sc Ac cast]
+15.8 +12.2 79 +16 +16 тепло 1018.5 1001.7 +22.9 2
штиль 0 18 км 5/3 1000 м
[Sc Ac trans]
+12.3 +11.5 95 +12 +12 тепло 1018.5 1001.5
штиль 0 14 км 3/0
[Ac trans]
+10.2 +9.7 97 +9 +9 тепло 1018.1 1000.9
штиль 0 13 км 3/3 1000 м
[Sc]
+10.2 +9.7 97 +9 +10 по сезону 1018.1 1000.9
В 1 17 км 4/0
[Ac cast]
+18.4 +12.6 69 +20 +26 тепло 1017.8 1001.2 +9.5
С 1 35 км 4/4 600 м
[Cb cap]
+22.3 +9.1 43 +24 +34 комфорт 1017.6 1001.2
С 1 30 км 8/6 600 м
[Cb cap Ci fib]
+22.4 +10.9 48 +24 +30 комфорт 1016.2 999.9
Ю 1 27 км в посл. час ливневой дождь {гроза} 8/8 600 м
[Cb cap]
+14.7 +13.9 95 +15 +16 тепло 1016.8 999.9
штиль 0 14 км {гроза, ливн. дождь} 5/3 600 м
[Cb cap Ac trans Ci fib]
+13.9 +12.9 94 +13 +13 тепло 1016.7 999.8 +25.4 26
Местоположение метеостанции Жлобин (Гомельская область, Беларусь): широта 52.90 долгота 30.03 высота над уровнем моря 142 м.
В архиве по умолчанию представлена погода в Жлобине за последнюю неделю. Архивные данные за месяц целиком и за предыдущие месяцы, начиная с января 2011 года, Вы можете получить, выбрав интересующий диапазон дат из раскрывающегося списка и нажав кнопку "Найти!".
*Определитесь, кто Вы:
Внимание! Время в таблицах - всемирное. Для получения местного времени необходимо прибавить поправку, которая равна 3 ч.
Некоторые строки с данными для отдельных станций могут быть выделены курсивом. Это означает, что фактические данные отсутствуют по различным причинам, а приведенные значения являются расчетными модельными данными для данного пункта наблюдений.
Смотрите также архив погоды в соседних городах и на ближайших метеорологических станциях:
Партнеры нашего сайта:      
Пояснения к столбцам:
  • Ветер - указаны скорость ветра в м/с - средняя за 10 мин, порывы в срок и между сроками (в фигурных скобках) и направление, откуда дует ветер: С - северный,
  • СВ - северо-восточный, В - восточный, ЮВ - юго-восточный, Ю - южный, ЮЗ - юго-западный, З - западный, СЗ - северо-западный.
  • Видимость - горизонтальная дальность видимости в метрах или километрах. При видимости от 1 до 10 км при отсутствии осадков обычно наблюдается дымка, при ухудшении видимости до 1 км и менее - туман. В сухую погоду видимость может ухудшаться дымом, пылью или мглою.
  • Явления - указаны атмосферные явления, наблюдавшиеся в срок или в последний час перед сроком; фигурными скобками обозначены явления, наблюдавшиеся между сроками (за 1-3 часа до срока); квадратными скобками обозначены град или гололедные отложения с указанием их диаметра в мм.
  • Облачность - указаны через наклонную черту общая и нижняя облачность в баллах и высота нижней границы облаков в метрах; квадратными скобками обозначены формы облаков: Ci - перистые, Cs - перисто-слоистые, Cc - перисто-кучевые, Ac - высококучевые, As - высокослоистые, Sc - слоисто-кучевые, Ns - слоисто-дождевые, Cu - кучевые, Cb - кучево-дождевые. Подробнее классификацию облаков см. в Атласе облаков (PDF).
  • T - Температура воздуха - температура, измеренная на высоте 2 м над землей.
  • Td - Температура точки росы - температура, при понижении до которой содержащийся в воздухе водяной пар достигнет насыщения.
  • f - Относительная влажность воздуха - влажноcть воздуха, измеренная на высоте 2 м над землей.
  • Te - Эффективная температура - температура, которую ощущает одетый по сезону человек в тени. Характеристика душности погоды. При расчете учитывается влияние влажности воздуха и скорости ветра на теплоощущения человека.
  • Tes - Эффективная температура на солнце - температура, которую ощущает человек, с поправкой на солнечный нагрев. Характеристика знойности погоды. Зависит от высоты солнца над горизонтом, облачности и скорости ветра. Ночью, в пасмурную погоду, а также при ветре 12 м/с и более поправка равна нулю.
  • P - Атмосферное давление - приведенное к уровню моря атмосферное давление.
  • Po - Атмосферное давление - измеренное на уровне метеостанции атмосферное давление.
  • Tmin - Минимальная температура - минимум температуры воздуха на высоте 2 м над землей.
  • Tmax - Максимальная температура - максимум температуры воздуха на высоте 2 м над землей.
  • R - Количество осадков - Количество выпавших осадков за период времени, мм. При наведении курсора мыши на число - период времени, за который выпало указанное количество осадков.
  • R24 - Количество осадков - Количество выпавших осадков за 24 часа, мм.
  • S - Снежный покров - Высота снежного покрова, см. При наведении курсора мыши на число - состояние снежного покрова и степень покрытия местности в баллах.